FW5704 Weather Reports


Display with metric or nautical units.
time (UTC)temp
F
wind
direction
speed
MPH
gust
MPH
rain 1hr
in
rain 24hr
in
rain mn
in
humidity
%
barometer
mb
20260905202036 78 0 0.0 1.0 0.00 0.00 0.00 87 1016.1
20260905201605 79 0 0.0 1.0 0.00 0.00 0.00 86 1016.2
20260905201033 79 0 0.0 2.0 0.00 0.00 0.00 85 1016.3
20260905200533 80 0 0.0 3.0 0.00 0.00 0.00 85 1016.0
20260905200059 80 180 1.0 3.0 0.00 0.00 0.00 83 1015.8
20260905195536 80 0 1.0 2.0 0.00 0.00 0.00 82 1015.7
20260905195033 81 0 0.0 1.0 0.00 0.00 0.00 82 1015.6
20260905194554 81 0 0.0 1.0 0.00 0.00 0.00 81 1015.7
20260905194033 81 0 0.0 1.0 0.00 0.00 0.00 81 1015.7
20260905193536 80 147 0.0 3.0 0.00 0.00 0.00 80 1015.6
20260905193100 80 0 0.0 4.0 0.00 0.00 0.00 81 1015.5
20260905192535 80 0 2.0 5.0 0.00 0.00 0.00 82 1015.7
20260905192036 80 201 2.0 5.0 0.00 0.00 0.00 80 1015.8
20260905191559 81 201 2.0 4.0 0.00 0.00 0.00 80 1016.0
20260905191034 81 194 1.0 7.0 0.00 0.00 0.00 81 1016.3
20260905190534 81 200 3.0 8.0 0.00 0.00 0.00 80 1016.4
20260905190101 81 193 4.0 8.0 0.00 0.00 0.00 79 1016.0
20260905185533 82 211 2.0 6.0 0.00 0.00 0.00 79 1016.2
20260905185033 82 202 1.0 4.0 0.00 0.00 0.00 80 1016.3
20260905184606 83 0 0.0 1.0 0.00 0.00 0.00 84 1016.0
20260905184033 83 0 0.0 1.0 0.00 0.00 0.00 83 1015.7
20260905183535 83 0 0.0 1.0 0.00 0.00 0.00 82 1015.7
20260905183111 83 0 0.0 1.0 0.00 0.00 0.00 83 1015.6
20260905182533 83 0 0.0 1.0 0.00 0.00 0.00 81 1015.8
20260905182038 84 0 0.0 1.0 0.00 0.00 0.00 78 1015.8
20260905181602 84 0 0.0 1.0 0.00 0.00 0.00 78 1015.8
20260905181034 85 0 0.0 1.0 0.00 0.00 0.00 77 1015.8
20260905180537 86 296 0.0 1.0 0.00 0.00 0.00 75 1016.0
20260905180106 86 296 0.0 2.0 0.00 0.00 0.00 73 1016.2
20260905175533 87 0 0.0 2.0 0.00 0.00 0.00 73 1016.0
20260905175034 87 0 0.0 4.0 0.00 0.00 0.00 69 1016.1
20260905174559 88 296 0.0 4.0 0.00 0.00 0.00 70 1016.2
20260905174033 88 0 1.0 4.0 0.00 0.00 0.00 70 1016.3
20260905173534 88 227 0.0 4.0 0.00 0.00 0.00 71 1016.3
20260905173057 88 0 0.0 4.0 0.00 0.00 0.00 72 1016.4
20260905172534 87 202 1.0 4.0 0.00 0.00 0.00 69 1016.3
20260905172033 87 217 0.0 4.0 0.00 0.00 0.00 71 1016.4
20260905171557 87 207 1.0 5.0 0.00 0.00 0.00 72 1016.7
20260905171034 87 194 2.0 5.0 0.00 0.00 0.00 73 1016.6
20260905170533 87 223 1.0 4.0 0.00 0.00 0.00 73 1016.6
20260905170107 86 216 0.0 4.0 0.00 0.00 0.00 73 1016.6
20260905165533 86 205 0.0 4.0 0.00 0.00 0.00 72 1016.8
20260905165033 86 0 0.0 4.0 0.00 0.00 0.00 74 1016.9
20260905164605 85 205 2.0 4.0 0.00 0.00 0.00 74 1017.0
20260905164035 85 344 1.0 4.0 0.00 0.00 0.00 76 1017.0
20260905163533 85 182 1.0 4.0 0.00 0.00 0.00 74 1017.3
20260905163058 85 216 0.0 3.0 0.00 0.00 0.00 76 1017.3
20260905162536 84 0 0.0 4.0 0.00 0.00 0.00 77 1017.3
20260905162034 84 217 1.0 4.0 0.00 0.00 0.00 77 1017.3
20260905161557 84 0 1.0 4.0 0.00 0.00 0.00 78 1017.4
20260905161034 83 0 0.0 5.0 0.00 0.00 0.00 78 1017.4
20260905160533 83 0 2.0 5.0 0.00 0.00 0.00 77 1017.6
20260905160056 83 0 0.0 3.0 0.00 0.00 0.00 78 1017.5
20260905155533 83 0 1.0 3.0 0.00 0.00 0.00 77 1017.5
20260905155036 83 0 0.0 3.0 0.00 0.00 0.00 77 1017.6
20260905154550 82 0 0.0 3.0 0.00 0.00 0.00 78 1017.7
20260905154033 82 198 0.0 3.0 0.00 0.00 0.00 80 1017.7
20260905153533 82 205 1.0 3.0 0.00 0.00 0.00 80 1017.9
20260905153058 81 0 0.0 4.0 0.00 0.00 0.00 81 1017.8
20260905152534 81 196 0.0 4.0 0.00 0.00 0.00 80 1017.7
20260905152033 81 0 1.0 4.0 0.00 0.00 0.00 79 1017.9
20260905151559 81 206 0.0 4.0 0.00 0.00 0.00 78 1017.8
20260905151034 80 0 1.0 4.0 0.00 0.00 0.00 79 1017.8
20260905150533 80 0 0.0 3.0 0.00 0.00 0.00 79 1017.8
20260905150056 80 0 0.0 3.0 0.00 0.00 0.00 80 1017.9
20260905145534 79 0 0.0 3.0 0.00 0.00 0.00 80 1017.9
20260905145033 79 209 0.0 3.0 0.00 0.00 0.00 79 1018.0
20260905144558 78 209 0.0 3.0 0.00 0.00 0.00 81 1018.0
20260905144032 78 0 0.0 4.0 0.00 0.00 0.00 82 1018.0
20260905143539 78 0 0.0 4.0 0.00 0.00 0.00 83 1018.0
20260905143057 77 204 1.0 4.0 0.00 0.00 0.00 83 1018.0
20260905142535 77 0 0.0 2.0 0.00 0.00 0.00 84 1018.0
20260905142033 77 0 0.0 1.0 0.00 0.00 0.00 86 1018.2
20260905141559 76 0 0.0 2.0 0.00 0.00 0.00 87 1018.1
20260905141034 76 0 0.0 2.0 0.00 0.00 0.00 88 1018.1
20260905140533 75 0 0.0 1.0 0.00 0.00 0.00 88 1018.3
20260905140112 74 0 0.0 0.0 0.00 0.00 0.00 89 1018.4
20260905135536 73 0 0.0 2.0 0.00 0.00 0.00 90 1018.5
20260905135033 73 0 0.0 2.0 0.00 0.00 0.00 91 1018.3
20260905134603 72 269 0.0 2.0 0.00 0.00 0.00 93 1018.5
20260905134037 71 0 0.0 2.0 0.00 0.00 0.00 95 1018.5
20260905133532 71 0 0.0 2.0 0.00 0.00 0.00 96 1018.5
20260905133057 70 0 0.0 0.0 0.00 0.00 0.00 96 1018.6
20260905132533 70 0 0.0 0.0 0.00 0.00 0.00 97 1018.5
20260905132033 70 0 0.0 0.0 0.00 0.00 0.00 96 1018.5
20260905131601 69 0 0.0 0.0 0.00 0.00 0.00 96 1018.6
20260905131034 70 0 0.0 0.0 0.00 0.00 0.00 97 1018.6
20260905130533 69 0 0.0 0.0 0.00 0.00 0.00 97 1018.7
20260905130058 69 0 0.0 0.0 0.00 0.00 0.00 97 1018.5
20260905125532 69 0 0.0 0.0 0.00 0.00 0.00 97 1018.6
20260905125034 69 0 0.0 0.0 0.00 0.00 0.00 97 1018.4
20260905124604 68 0 0.0 0.0 0.00 0.00 0.00 96 1018.5
20260905124033 68 0 0.0 0.0 0.00 0.00 0.00 96 1018.4
20260905123533 68 0 0.0 0.0 0.00 0.00 0.00 96 1018.3
20260905123119 68 0 0.0 0.0 0.00 0.00 0.00 96 1018.3
20260905122533 68 0 0.0 0.0 0.00 0.00 0.00 96 1018.3
20260905122033 68 0 0.0 0.0 0.00 0.00 0.00 96 1018.3
20260905121556 68 0 0.0 0.0 0.00 0.00 0.00 96 1018.3
20260905121036 67 0 0.0 0.0 0.00 0.00 0.00 96 1018.2
20260905120535 67 0 0.0 0.0 0.00 0.00 0.00 96 1018.1
20260905120056 67 0 0.0 0.0 0.00 0.00 0.00 96 1018.1
20260905115537 67 0 0.0 0.0 0.00 0.00 0.00 96 1018.1
20260905115037 67 0 0.0 0.0 0.00 0.00 0.00 95 1018.1
20260905114554 67 0 0.0 0.0 0.00 0.00 0.00 95 1017.9
20260905114034 67 0 0.0 0.0 0.00 0.00 0.00 95 1017.8
20260905113534 67 0 0.0 0.0 0.00 0.00 0.00 95 1017.8
20260905113053 67 0 0.0 0.0 0.00 0.00 0.00 95 1017.7
20260905112535 67 0 0.0 0.0 0.00 0.00 0.00 95 1017.8
20260905112033 67 0 0.0 0.0 0.00 0.00 0.00 95 1017.6
20260905111604 67 0 0.0 0.0 0.00 0.00 0.00 95 1017.4
20260905111034 67 0 0.0 0.0 0.00 0.00 0.00 95 1017.3
20260905110535 67 0 0.0 0.0 0.00 0.00 0.00 95 1017.4
20260905110057 67 0 0.0 0.0 0.00 0.00 0.00 95 1017.4
20260905105534 67 0 0.0 1.0 0.00 0.00 0.00 95 1017.4
20260905105037 67 0 0.0 1.0 0.00 0.00 0.00 95 1017.4
20260905104611 67 0 0.0 1.0 0.00 0.00 0.00 95 1017.3
20260905104035 67 0 0.0 0.0 0.00 0.00 0.00 95 1017.2
20260905103534 67 0 0.0 0.0 0.00 0.00 0.00 95 1017.2
20260905103053 67 0 0.0 0.0 0.00 0.00 0.00 95 1017.3
20260905102536 67 0 0.0 0.0 0.00 0.00 0.00 95 1017.3
20260905102033 67 0 0.0 0.0 0.00 0.00 0.00 95 1017.2
20260905101605 67 0 0.0 0.0 0.00 0.00 0.00 95 1017.2
20260905101034 67 0 0.0 0.0 0.00 0.00 0.00 95 1017.1
20260905100533 67 0 0.0 0.0 0.00 0.00 0.00 95 1017.1
20260905100110 67 0 0.0 0.0 0.00 0.00 0.00 95 1017.2
20260905095534 67 0 0.0 0.0 0.00 0.00 0.00 95 1017.1
20260905095035 67 0 0.0 0.0 0.00 0.00 0.00 95 1017.1
20260905094554 67 0 0.0 0.0 0.00 0.00 0.00 95 1016.9
20260905094035 67 0 0.0 0.0 0.00 0.00 0.00 95 1017.0
20260905093535 67 0 0.0 0.0 0.00 0.00 0.00 95 1017.0
20260905093052 67 0 0.0 0.0 0.00 0.00 0.00 95 1017.0
20260905092534 67 0 0.0 0.0 0.00 0.00 0.00 95 1016.9
20260905092033 67 0 0.0 0.0 0.00 0.00 0.00 95 1017.0
20260905091555 67 0 0.0 0.0 0.00 0.00 0.00 95 1017.0
20260905091033 68 0 0.0 0.0 0.00 0.00 0.00 95 1017.2
20260905090532 68 0 0.0 0.0 0.00 0.00 0.00 95 1017.0
20260905090131 68 0 0.0 2.0 0.00 0.00 0.00 95 1017.2
20260905085535 68 0 0.0 2.0 0.00 0.00 0.00 95 1017.0
20260905085037 68 0 0.0 1.0 0.00 0.00 0.00 95 1017.2
20260905084602 68 0 0.0 0.0 0.00 0.00 0.00 95 1016.9
20260905084032 68 0 0.0 1.0 0.00 0.00 0.00 95 1017.0
20260905083532 68 0 0.0 1.0 0.00 0.00 0.00 95 1016.8
20260905083053 68 0 0.0 1.0 0.00 0.00 0.00 95 1016.9
20260905082533 68 0 0.0 0.0 0.00 0.00 0.00 95 1016.8
20260905082033 68 0 0.0 0.0 0.00 0.00 0.00 95 1016.9
20260905081556 68 0 0.0 0.0 0.00 0.00 0.00 94 1017.0
20260905081032 68 0 0.0 0.0 0.00 0.00 0.00 95 1017.0
20260905080532 68 0 0.0 0.0 0.00 0.00 0.00 95 1017.0
20260905080100 68 0 0.0 0.0 0.00 0.00 0.00 94 1017.2
20260905075535 68 0 0.0 0.0 0.00 0.00 0.00 94 1017.2
20260905075035 68 0 0.0 0.0 0.00 0.00 0.00 94 1017.2
20260905074556 68 0 0.0 0.0 0.00 0.00 0.00 94 1017.3
20260905074033 68 0 0.0 0.0 0.00 0.00 0.00 94 1017.3
20260905073537 68 0 0.0 0.0 0.00 0.00 0.00 94 1017.3
20260905073052 68 0 0.0 1.0 0.00 0.00 0.00 94 1017.3
20260905072533 68 0 0.0 1.0 0.00 0.00 0.00 94 1017.5
20260905072031 68 0 0.0 1.0 0.00 0.00 0.00 94 1017.5
20260905071556 68 0 0.0 1.0 0.00 0.00 0.00 94 1017.5
20260905071033 68 0 0.0 1.0 0.00 0.00 0.00 94 1017.5
20260905070532 68 274 0.0 0.0 0.00 0.00 0.00 94 1017.7
20260905070058 68 0 0.0 0.0 0.00 0.00 0.00 94 1017.7
20260905065535 68 0 0.0 0.0 0.00 0.00 0.00 94 1017.6
20260905065032 68 0 0.0 0.0 0.00 0.00 0.00 94 1017.7
20260905064555 68 0 0.0 0.0 0.00 0.00 0.00 94 1017.8
20260905064034 68 0 0.0 0.0 0.00 0.00 0.00 94 1017.7
20260905063532 68 0 0.0 0.0 0.00 0.00 0.00 94 1017.6
20260905063053 68 0 0.0 0.0 0.00 0.00 0.00 94 1017.7
20260905062532 68 0 0.0 0.0 0.00 0.00 0.00 94 1017.7
20260905062034 68 0 0.0 1.0 0.00 0.00 0.00 94 1017.7
20260905061554 69 0 0.0 2.0 0.00 0.00 0.00 94 1017.8
20260905061031 68 0 0.0 2.0 0.00 0.00 0.00 94 1017.8
20260905060532 68 0 0.0 1.0 0.00 0.00 0.00 94 1017.8
20260905060055 68 0 0.0 0.0 0.00 0.00 0.00 94 1017.7
20260905055531 69 0 0.0 0.0 0.00 0.00 0.00 94 1017.8
20260905055034 69 0 0.0 0.0 0.00 0.00 0.00 94 1017.9
20260905054555 69 0 0.0 2.0 0.00 0.00 0.00 94 1018.0
20260905054032 69 0 0.0 2.0 0.00 0.00 0.00 94 1018.0
20260905053532 69 274 0.0 2.0 0.00 0.00 0.00 94 1017.9
20260905053101 69 0 0.0 2.0 0.00 0.00 0.00 94 1017.8
20260905052532 69 273 0.0 0.0 0.00 0.00 0.00 94 1017.8
20260905052032 69 0 0.0 0.0 0.00 0.00 0.00 94 1017.9
20260905051555 69 0 0.0 0.0 0.00 0.00 0.00 94 1018.0
20260905051032 69 0 0.0 0.0 0.00 0.00 0.00 93 1018.1
20260905050535 69 0 0.0 0.0 0.00 0.00 0.00 93 1018.1
20260905050059 69 0 0.0 0.0 0.00 0.00 0.00 93 1018.0
20260905045532 69 0 0.0 0.0 0.00 0.00 0.00 93 1018.1
20260905045037 69 0 0.0 0.0 0.00 0.00 0.00 93 1018.2
20260905044559 69 0 0.0 0.0 0.00 0.00 0.00 93 1018.2
20260905044032 69 0 0.0 0.0 0.00 0.00 0.00 93 1018.2
20260905043532 69 0 0.0 0.0 0.00 0.00 0.00 93 1018.0
20260905043057 69 0 0.0 0.0 0.00 0.00 0.00 93 1017.9
20260905042535 69 0 0.0 0.0 0.00 0.00 0.00 93 1017.9
20260905042034 69 0 0.0 0.0 0.00 0.00 0.00 93 1018.0
20260905041555 69 0 0.0 1.0 0.00 0.00 0.00 93 1018.3
20260905041035 69 0 0.0 1.0 0.00 0.00 0.00 93 1018.2
20260905040535 69 0 0.0 1.0 0.00 0.00 0.00 93 1018.1
20260905040100 69 273 0.0 1.0 0.00 0.00 0.00 93 1018.2
20260905035534 69 0 0.0 1.0 0.00 0.00 0.00 93 1018.4
20260905035033 69 0 0.0 1.0 0.00 0.00 0.00 93 1018.4
20260905034611 69 0 0.0 0.0 0.00 0.00 0.00 93 1018.5
20260905034033 69 0 0.0 0.0 0.00 0.00 0.00 93 1018.6
20260905033535 69 0 0.0 1.0 0.00 0.00 0.00 93 1018.6
20260905033051 69 0 0.0 1.0 0.00 0.00 0.00 93 1018.6
20260905032534 70 0 0.0 1.0 0.00 0.00 0.00 93 1018.5
20260905032033 70 273 0.0 1.0 0.00 0.00 0.00 93 1018.8
20260905031600 70 0 0.0 1.0 0.00 0.00 0.00 93 1018.8
20260905031039 70 0 0.0 0.0 0.00 0.00 0.00 92 1018.9
20260905030533 70 0 0.0 0.0 0.00 0.00 0.00 92 1018.9
20260905030059 70 0 0.0 0.0 0.00 0.00 0.00 92 1018.9
20260905025537 70 0 0.0 0.0 0.00 0.00 0.00 92 1018.9
20260905025034 70 0 0.0 0.0 0.00 0.00 0.00 92 1019.1
20260905024603 70 0 0.0 0.0 0.00 0.00 0.00 92 1019.1
20260905024034 70 0 0.0 0.0 0.00 0.00 0.00 92 1019.0
20260905023534 70 0 0.0 0.0 0.00 0.00 0.00 91 1019.1
20260905023058 71 0 0.0 0.0 0.00 0.00 0.00 91 1019.3
20260905022536 71 0 0.0 2.0 0.00 0.00 0.00 92 1019.4
20260905022034 71 0 0.0 2.0 0.00 0.00 0.00 92 1019.3
20260905021556 71 273 0.0 2.0 0.00 0.00 0.00 91 1019.2
20260905021033 71 0 0.0 2.0 0.00 0.00 0.00 91 1019.2
20260905020533 71 0 0.0 2.0 0.00 0.00 0.00 91 1019.3
20260905020100 71 0 0.0 1.0 0.00 0.00 0.00 91 1018.9
20260905015538 71 0 0.0 1.0 0.00 0.00 0.00 90 1019.1
20260905015033 71 0 0.0 1.0 0.00 0.00 0.00 91 1019.1
20260905014556 72 0 0.0 2.0 0.00 0.00 0.00 91 1019.2
20260905014035 72 0 0.0 2.0 0.00 0.00 0.00 91 1019.3
20260905013536 72 0 0.0 0.0 0.00 0.00 0.00 90 1019.2
20260905013120 72 0 0.0 0.0 0.00 0.00 0.00 90 1019.3
20260905012535 72 0 0.0 0.0 0.00 0.00 0.00 90 1019.2
20260905012034 72 0 0.0 0.0 0.00 0.00 0.00 90 1019.1
20260905011559 72 0 0.0 0.0 0.00 0.00 0.00 90 1019.1
20260905011034 73 0 0.0 0.0 0.00 0.00 0.00 90 1019.0
20260905010535 73 0 0.0 0.0 0.00 0.00 0.00 90 1019.0
20260905005533 73 0 0.0 0.0 0.00 0.00 0.00 90 1019.0
20260905005033 73 0 0.0 0.0 0.00 0.00 0.00 89 1019.0
20260905004634 73 0 0.0 0.0 0.00 0.00 0.00 90 1018.8
20260905004034 73 0 0.0 0.0 0.00 0.00 0.00 89 1018.8
20260905003535 73 0 0.0 0.0 0.00 0.00 0.00 89 1018.8
20260905003059 74 0 0.0 0.0 0.00 0.00 0.00 89 1018.7
20260905002534 74 0 0.0 0.0 0.00 0.00 0.00 89 1018.7
20260905002038 74 0 0.0 0.0 0.00 0.00 0.00 89 1018.6
20260905001606 74 0 0.0 0.0 0.00 0.00 0.00 89 1018.7
20260905001034 74 0 0.0 0.0 0.00 0.00 0.00 89 1018.7
20260905000535 74 0 0.0 0.0 0.00 0.00 0.00 89 1018.8
20260905000101 74 0 0.0 0.0 0.00 0.00 0.00 89 1018.8
20260904235535 75 0 0.0 0.0 0.00 0.00 0.00 89 1018.7
20260904235033 75 0 0.0 0.0 0.00 0.00 0.00 89 1018.7
20260904234603 75 0 0.0 0.0 0.00 0.00 0.00 89 1018.6
20260904234038 75 0 0.0 0.0 0.00 0.00 0.00 89 1018.5
20260904233534 75 0 0.0 0.0 0.00 0.00 0.00 89 1018.5
20260904233058 75 0 0.0 0.0 0.00 0.00 0.00 89 1018.4
20260904232535 75 0 0.0 0.0 0.00 0.00 0.00 89 1018.4
20260904232034 75 0 0.0 0.0 0.00 0.00 0.00 88 1018.5
20260904231558 75 0 0.0 0.0 0.00 0.00 0.00 88 1018.4
20260904231033 75 0 0.0 0.0 0.00 0.00 0.00 88 1018.4
20260904230533 75 0 0.0 0.0 0.00 0.00 0.00 88 1018.3
20260904230108 75 0 0.0 0.0 0.00 0.00 0.00 88 1018.3
20260904225533 75 0 0.0 0.0 0.00 0.00 0.00 89 1018.2
20260904225035 75 0 0.0 0.0 0.00 0.00 0.00 89 1018.2
20260904224555 75 0 0.0 0.0 0.00 0.00 0.00 88 1018.3
20260904224036 75 0 0.0 1.0 0.00 0.00 0.00 88 1018.3
20260904223534 75 0 0.0 1.0 0.00 0.00 0.00 88 1018.2
20260904223050 75 0 0.0 1.0 0.00 0.00 0.00 87 1018.4
20260904222534 75 0 0.0 1.0 0.00 0.00 0.00 88 1018.3
20260904222033 75 0 0.0 1.0 0.00 0.00 0.00 87 1018.3
20260904221558 75 0 0.0 2.0 0.00 0.00 0.00 86 1018.2
20260904221033 75 0 0.0 2.0 0.00 0.00 0.00 86 1018.4
20260904220535 75 0 0.0 2.0 0.00 0.00 0.00 85 1018.3
20260904220100 75 0 0.0 2.0 0.00 0.00 0.00 84 1018.2
20260904215534 76 17 0.0 1.0 0.00 0.00 0.00 84 1018.3
20260904215034 76 0 0.0 2.0 0.00 0.00 0.00 83 1018.4
20260904214610 77 0 0.0 2.0 0.00 0.00 0.00 82 1018.3
20260904214033 77 10 0.0 2.0 0.00 0.00 0.00 82 1018.2
20260904213534 78 0 1.0 4.0 0.00 0.00 0.00 79 1018.2
20260904213051 78 11 1.0 4.0 0.00 0.00 0.00 77 1018.2
20260904212534 79 32 1.0 4.0 0.00 0.00 0.00 76 1018.2
20260904212034 80 12 1.0 4.0 0.00 0.00 0.00 72 1018.3
20260904211601 81 92 2.0 4.0 0.00 0.00 0.00 71 1018.3
20260904211035 83 27 2.0 4.0 0.00 0.00 0.00 69 1018.3
20260904210534 84 22 2.0 10.0 0.00 0.00 0.00 69 1018.4
20260904210055 85 55 0.0 10.0 0.00 0.00 0.00 69 1018.4
20260904205534 87 5 2.0 6.0 0.00 0.29 0.00 65 1018.2
20260904205033 88 305 2.0 6.0 0.00 0.29 0.00 66 1017.9
20260904204556 88 55 2.0 5.0 0.00 0.29 0.00 66 1018.0
20260904204037 88 205 1.0 3.0 0.00 0.29 0.00 68 1017.9
20260904203534 88 0 0.0 3.0 0.00 0.29 0.00 70 1017.9
20260904203102 88 206 1.0 4.0 0.00 0.29 0.00 68 1017.7
20260904202533 87 198 0.0 4.0 0.00 0.29 0.00 66 1017.8